Location: Newark
(25.4297°S, 49.2719°W)
Time: 12:46:49
(UTC+00:00)

Vanguard 1 Rocket - Pass Details

Date: 22 November 2019
Orbit: 650 x 4226 km, 34.3° (Epoch: 07 December)

Event Time Altitude Azimuth Distance (km) Brightness Sun altitude
Rises 23:51:51 0° 245° (WSW) 8,402 13.6 -25.0°
Reaches altitude 10° 23:58:13 10° 248° (WSW) 7,150 12.8 -26.1°
Maximum altitude 00:19:47 57° 319° (NW) 3,063 9.8 -29.7°
Enters shadow 00:24:56 42° 11° (NNE) 3,027 9.5 -30.5°
Drops below altitude 10° 00:31:23 10° 35° (NE) 4,084 - -31.5°
Sets 00:33:58 0° 40° (NE) 4,731 - -31.9°
